• In Latvia
  • List of Countries
  • For 7 days
  • Water Temperature
  • Satellite Maps
  • Weather Map
  • Weather Widgets
  • user-avatar
    Login

    Hourly Weather Newport

    Today, 20 September, Thursday

    Time Temperature Precipitation Wind Pressure Humidity
    00:00 +17°C° 0.1 mm 8 mps 757 mmHg 91%
    01:00 +17°C° 0 mm 8 mps 757 mmHg 90%
    02:00 +17°C° 0 mm 9 mps 757 mmHg 90%
    03:00 +17°C° 0 mm 9 mps 756 mmHg 89%
    04:00 +17°C° 0.1 mm 9 mps 756 mmHg 89%
    05:00 +17°C° 0.1 mm 9 mps 756 mmHg 90%
    06:00 +17°C° 0.1 mm 9 mps 756 mmHg 90%
    07:00 +17°C° 0.2 mm 9 mps 756 mmHg 89%
    08:00 +17°C° 0.2 mm 9 mps 756 mmHg 88%
    09:00 +17°C° 0.2 mm 9 mps 756 mmHg 87%
    10:00 +18°C° 0.1 mm 10 mps 755 mmHg 86%
    11:00 +18°C° 0.1 mm 10 mps 755 mmHg 85%
    12:00 +18°C° 0.1 mm 10 mps 755 mmHg 84%
    13:00 +18°C° 0 mm 10 mps 754 mmHg 82%
    14:00 +18°C° 0 mm 10 mps 754 mmHg 79%
    15:00 +19°C° 0 mm 10 mps 753 mmHg 77%
    16:00 +19°C° 0 mm 11 mps 752 mmHg 78%
    17:00 +19°C° 0 mm 11 mps 752 mmHg 79%
    18:00 +18°C° 0 mm 12 mps 751 mmHg 80%
    19:00 +18°C° 0.4 mm 13 mps 750 mmHg 81%
    20:00 +18°C° 0.4 mm 13 mps 749 mmHg 83%
    21:00 +18°C° 0.4 mm 14 mps 749 mmHg 85%
    22:00 +18°C° 2 mm 14 mps 748 mmHg 86%
    23:00 +17°C° 2 mm 14 mps 748 mmHg 87%

    Tomorrow, 21 September, Friday

    Time Temperature Precipitation Wind Pressure Humidity
    00:00 +17°C° 2 mm 14 mps 747 mmHg 88%
    01:00 +14°C° 1.5 mm 13 mps 748 mmHg 86%
    02:00 +12°C° 1.5 mm 12 mps 749 mmHg 84%
    03:00 +8°C° 1.5 mm 11 mps 750 mmHg 81%
    04:00 +8°C° 0 mm 11 mps 751 mmHg 82%
    05:00 +7°C° 0 mm 10 mps 752 mmHg 82%
    06:00 +7°C° 0 mm 9 mps 753 mmHg 82%
    07:00 +8°C° 0 mm 10 mps 754 mmHg 74%
    08:00 +11°C° 0 mm 10 mps 755 mmHg 67%
    09:00 +12°C° 0 mm 11 mps 756 mmHg 59%
    10:00 +13°C° 0 mm 11 mps 756 mmHg 56%
    11:00 +14°C° 0 mm 11 mps 757 mmHg 53%
    12:00 +16°C° 0 mm 11 mps 757 mmHg 50%
    13:00 +16°C° 0 mm 11 mps 758 mmHg 51%
    14:00 +16°C° 0 mm 11 mps 758 mmHg 51%
    15:00 +16°C° 0 mm 11 mps 759 mmHg 52%
    16:00 +14°C° 0 mm 10 mps 759 mmHg 56%
    17:00 +13°C° 0 mm 9 mps 759 mmHg 60%
    18:00 +12°C° 0 mm 8 mps 760 mmHg 64%
    19:00 +11°C° 0 mm 8 mps 760 mmHg 66%
    20:00 +11°C° 0 mm 8 mps 761 mmHg 68%
    21:00 +10°C° 0 mm 7 mps 761 mmHg 70%
    22:00 +10°C° 0 mm 7 mps 761 mmHg 72%
    23:00 +10°C° 0 mm 7 mps 762 mmHg 73%

    Day after tomorrow, 22 September, Saturday

    Time Temperature Precipitation Wind Pressure Humidity
    00:00 +9°C° 0 mm 7 mps 762 mmHg 75%
    01:00 +9°C° 0 mm 6 mps 762 mmHg 77%
    02:00 +8°C° 0 mm 6 mps 762 mmHg 80%
    03:00 +8°C° 0 mm 6 mps 762 mmHg 82%
    04:00 +8°C° 0 mm 5 mps 762 mmHg 84%
    05:00 +7°C° 0 mm 5 mps 762 mmHg 86%
    06:00 +7°C° 0 mm 4 mps 763 mmHg 87%
    07:00 +10°C° 0 mm 4 mps 763 mmHg 80%
    08:00 +12°C° 0 mm 4 mps 763 mmHg 74%
    09:00 +13°C° 0 mm 3 mps 763 mmHg 67%
    10:00 +14°C° 0 mm 3 mps 763 mmHg 64%
    11:00 +14°C° 0 mm 3 mps 763 mmHg 61%
    12:00 +16°C° 0 mm 3 mps 763 mmHg 59%
    13:00 +14°C° 0.2 mm 3 mps 763 mmHg 62%
    14:00 +14°C° 0.2 mm 3 mps 763 mmHg 66%
    15:00 +15°C° 0.2 mm 2 mps 762 mmHg 69%
    16:00 +13°C° 0.6 mm 3 mps 762 mmHg 75%
    17:00 +12°C° 0.6 mm 3 mps 762 mmHg 80%
    18:00 +11°C° 0.6 mm 3 mps 761 mmHg 86%
    19:00 +11°C° 0.5 mm 4 mps 760 mmHg 87%
    20:00 +10°C° 0.5 mm 5 mps 760 mmHg 89%
    21:00 +10°C° 0.5 mm 7 mps 759 mmHg 91%
    22:00 +10°C° 1 mm 7 mps 758 mmHg 92%
    23:00 +11°C° 1 mm 7 mps 757 mmHg 92%

    23 September, Sunday

    Time Temperature Precipitation Wind Pressure Humidity
    00:00 +11°C° 1 mm 7 mps 756 mmHg 93%
    01:00 +11°C° 1.5 mm 8 mps 754 mmHg 94%
    02:00 +12°C° 1.5 mm 8 mps 753 mmHg 95%
    03:00 +12°C° 1.5 mm 9 mps 752 mmHg 96%
    04:00 +14°C° 0.6 mm 10 mps 751 mmHg 95%
    05:00 +17°C° 0.6 mm 11 mps 750 mmHg 94%
    06:00 +18°C° 0.6 mm 13 mps 748 mmHg 93%
    07:00 +18°C° 0.2 mm 13 mps 747 mmHg 93%
    08:00 +18°C° 0.2 mm 14 mps 746 mmHg 92%
    09:00 +18°C° 0.2 mm 15 mps 745 mmHg 91%
    10:00 +16°C° 0.2 mm 16 mps 743 mmHg 88%
    11:00 +16°C° 0.2 mm 17 mps 742 mmHg 84%
    12:00 +15°C° 0.2 mm 18 mps 740 mmHg 81%
    13:00 +12°C° 0.2 mm 18 mps 742 mmHg 81%
    14:00 +10°C° 0.2 mm 19 mps 744 mmHg 80%
    15:00 +7°C° 0.2 mm 20 mps 745 mmHg 80%
    16:00 +7°C° 0 mm 19 mps 749 mmHg 76%
    17:00 +7°C° 0 mm 17 mps 752 mmHg 72%
    18:00 +7°C° 0 mm 16 mps 756 mmHg 68%
    19:00 +6°C° 0 mm 15 mps 759 mmHg 66%
    20:00 +7°C° 0 mm 13 mps 761 mmHg 65%
    21:00 +5°C° 0 mm 12 mps 764 mmHg 63%
    22:00 +6°C° 0 mm 11 mps 765 mmHg 63%
    23:00 +6°C° 0 mm 10 mps 766 mmHg 62%

    24 September, Monday

    Time Temperature Precipitation Wind Pressure Humidity
    00:00 +5°C° 0 mm 9 mps 767 mmHg 62%
    01:00 +5°C° 0 mm 8 mps 768 mmHg 66%
    02:00 +4°C° 0 mm 8 mps 769 mmHg 69%
    03:00 +4°C° 0 mm 7 mps 770 mmHg 73%
    04:00 +4°C° 0 mm 6 mps 770 mmHg 77%
    05:00 +4°C° 0 mm 6 mps 771 mmHg 81%
    06:00 +3°C° 0 mm 5 mps 771 mmHg 85%
    07:00 +6°C° 0 mm 5 mps 772 mmHg 78%
    08:00 +8°C° 0 mm 5 mps 773 mmHg 71%
    09:00 +10°C° 0 mm 5 mps 773 mmHg 64%
    10:00 +12°C° 0 mm 5 mps 773 mmHg 60%
    11:00 +13°C° 0 mm 5 mps 774 mmHg 56%
    12:00 +14°C° 0 mm 5 mps 774 mmHg 51%
    13:00 +14°C° 0 mm 5 mps 774 mmHg 51%
    14:00 +14°C° 0 mm 4 mps 774 mmHg 52%
    15:00 +15°C° 0 mm 4 mps 774 mmHg 52%
    16:00 +13°C° 0 mm 4 mps 774 mmHg 58%
    17:00 +12°C° 0 mm 4 mps 774 mmHg 63%
    18:00 +11°C° 0 mm 4 mps 774 mmHg 68%
    19:00 +10°C° 0 mm 3 mps 774 mmHg 71%
    20:00 +9°C° 0 mm 3 mps 774 mmHg 74%
    21:00 +8°C° 0 mm 3 mps 775 mmHg 77%
    22:00 +8°C° 0 mm 3 mps 775 mmHg 79%
    23:00 +7°C° 0 mm 3 mps 775 mmHg 81%

    25 September, Tuesday

    Time Temperature Precipitation Wind Pressure Humidity
    00:00 +7°C° 0 mm 3 mps 775 mmHg 83%
    01:00 +5°C° 0 mm 3 mps 775 mmHg 84%
    02:00 +5°C° 0 mm 3 mps 775 mmHg 85%
    03:00 +5°C° 0 mm 3 mps 775 mmHg 86%
    04:00 +5°C° 0 mm 3 mps 775 mmHg 87%
    05:00 +6°C° 0 mm 2 mps 774 mmHg 87%
    06:00 +5°C° 0 mm 2 mps 774 mmHg 87%
    07:00 +7°C° 0 mm 2 mps 774 mmHg 80%
    08:00 +9°C° 0 mm 2 mps 774 mmHg 72%
    09:00 +11°C° 0 mm 3 mps 774 mmHg 64%
    10:00 +13°C° 0 mm 3 mps 774 mmHg 58%
    11:00 +14°C° 0 mm 3 mps 774 mmHg 53%
    12:00 +16°C° 0 mm 3 mps 774 mmHg 47%
    13:00 +16°C° 0 mm 3 mps 773 mmHg 48%
    14:00 +16°C° 0 mm 3 mps 772 mmHg 48%
    15:00 +17°C° 0 mm 3 mps 772 mmHg 49%
    16:00 +14°C° 0 mm 3 mps 771 mmHg 56%
    17:00 +12°C° 0 mm 4 mps 771 mmHg 63%
    18:00 +11°C° 0 mm 4 mps 771 mmHg 71%
    19:00 +10°C° 0 mm 4 mps 770 mmHg 74%
    20:00 +10°C° 0 mm 4 mps 770 mmHg 78%
    21:00 +8°C° 0 mm 4 mps 770 mmHg 81%
    22:00 +8°C° 0 mm 4 mps 770 mmHg 83%
    23:00 +8°C° 0 mm 5 mps 770 mmHg 85%
    Show more